This demonstration page uses our WeatherBlox Daily Observations layout. Learn more.

Left ArrowRight Arrow

41.12389, -100.76542

Hourly Observations for August 10, 2022

Temp ( °F °C ) Dew Point ( °F °C ) Humidity (%) Winds ( mph kmh ) Pressure ( in mb ) Visibility ( mi km ) Precip ( " mm )
12:53 am 00:53 Clear 77 25 59 15 54 54 SSE 9 15 30.05 1018 10 16 0.00 0.00
1:53 am 01:53 Clear 74 23.3 58 14.4 57 57 S 6 9 30.07 1018 10 16 0.00 0.00
2:53 am 02:53 Clear 71 21.7 58 14.4 63 63 SSE 5 7 30.09 1019 10 16 0.00 0.00
3:53 am 03:53 Clear 70 21.1 58 14.4 66 66 S 5 7 30.09 1019 10 16 0.00 0.00
4:53 am 04:53 Clear 67 19.4 58 14.4 73 73 Calm 30.10 1019 10 16 0.00 0.00
5:53 am 05:53 Clear 66 18.9 56 13.3 70 70 SSW 5 7 30.10 1019 10 16 0.00 0.00
6:53 am 06:53 Sunny 60 15.6 55 12.8 83 83 Calm 30.12 1020 10 16 0.00 0.00
7:53 am 07:53 Sunny 67 19.4 59 15 76 76 Calm 30.14 1021 10 16 0.00 0.00
8:53 am 08:53 Sunny 73 22.8 60 15.6 64 64 WNW 3 6 30.14 1021 10 16 0.00 0.00
9:53 am 09:53 Sunny 78 25.6 59 15 52 52 VRB 3 6 30.15 1021 10 16 0.00 0.00
10:53 am 10:53 Sunny 86 30 60 15.6 42 42 Calm 30.14 1021 10 16 0.00 0.00
11:53 am 11:53 Sunny 90 32.2 62 16.7 40 40 VRB 3 6 30.13 1020 10 16 0.00 0.00
12:53 pm 12:53 Sunny 94 34.4 56 13.3 28 28 VRB 3 6 30.11 1020 10 16 0.00 0.00
1:53 pm 13:53 Sunny 98 36.7 48 8.9 18 18 S 10 17 30.09 1019 10 16 0.00 0.00
2:53 pm 14:53 Sunny 98 36.7 49 9.4 19 19 VRB 6 9 30.09 1019 10 16 0.00 0.00
3:55 pm 15:55 Hazy 99 37.2 49 9.4 19 19 SSE 5 7 29.90 1013 2 3 0.00 0.00
4:10 pm 16:10 Hazy 99 37.2 48 8.9 18 18 SE 5 7 29.90 1013 6 10 0.00 0.00
4:53 pm 16:53 Sunny 100 37.8 49 9.4 18 18 ESE 5 7 30.06 1018 10 16 0.00 0.00
5:53 pm 17:53 Sunny 99 37.2 51 10.6 20 20 SSW 6 9 30.05 1018 10 16 0.00 0.00
6:53 pm 18:53 Sunny 96 35.6 55 12.8 25 25 S 7 11 30.04 1017 10 16 0.00 0.00
7:53 pm 19:53 Sunny 91 32.8 55 12.8 30 30 S 8 13 30.04 1017 10 16 0.00 0.00
8:53 pm 20:53 Clear 86 30 54 12.2 33 33 SSE 7 11 30.06 1018 10 16 0.00 0.00
9:53 pm 21:53 Clear 83 28.3 54 12.2 37 37 SSE 6 9 30.08 1019 10 16 0.00 0.00
10:53 pm 22:53 Clear 76 24.4 56 13.3 50 50 ESE 6 9 30.09 1019 10 16 0.00 0.00
11:53 pm 23:53 Clear 80 26.7 54 12.2 41 41 S 7 11 30.09 1019 10 16 0.00 0.00

Powered by AerisWeather